MDT,Max TemperatureF,Mean TemperatureF,Min TemperatureF,Max Dew PointF,MeanDew PointF,Min DewpointF,Max Humidity, Mean Humidity, Min Humidity, Max Sea Level PressureIn, Mean Sea Level PressureIn, Min Sea Level PressureIn, Max VisibilityMiles, Mean VisibilityMiles, Min VisibilityMiles, Max Wind SpeedMPH, Mean Wind SpeedMPH, Max Gust SpeedMPH,PrecipitationIn, CloudCover, Events, WindDirDegrees
2013-5-1,73,54,33,28,16,9,46,21,14,30.33,30.06,29.93,10,10,8,31,11,40,0.00,2,,245
2013-5-2,53,37,21,10,7,0,54,30,14,30.52,30.45,30.34,10,10,10,23,11,31,0.00,0,,356
2013-5-3,62,42,21,14,9,3,54,28,11,30.45,30.27,30.08,10,10,10,17,6,22,0.00,0,,252
2013-5-4,69,50,30,16,11,5,35,21,11,30.17,30.09,30.01,10,10,10,26,13,34,0.00,0,,142
2013-5-5,64,50,35,28,19,12,41,27,19,30.25,30.18,30.12,10,10,9,24,13,32,0.00,2,,209
2013-5-6,55,47,39,43,32,21,81,57,39,30.18,30.13,30.07,10,10,7,18,8,26,0.05,6,Thunderstorm,114
2013-5-7,68,50,32,37,30,23,87,52,20,30.16,30.10,30.01,10,10,10,32,6,44,0.00,4,,269
2013-5-8,64,48,33,36,24,12,81,43,16,30.14,30.09,30.03,10,10,10,21,9,31,0.00,2,,294
2013-5-9,59,42,26,37,23,7,66,44,23,30.24,30.16,30.12,10,10,10,22,5,31,0.01,3,,349
2013-5-10,64,48,33,34,28,23,70,46,24,30.40,30.27,30.21,10,10,10,17,7,33,0.00,5,,43
2013-5-11,66,48,30,34,29,21,81,48,24,30.46,30.42,30.38,10,10,10,20,4,24,0.00,4,,77
2013-5-12,71,52,33,34,27,21,70,39,18,30.47,30.38,30.29,10,10,10,16,5,29,0.00,3,,104
2013-5-13,77,56,35,34,27,18,49,34,16,30.43,30.36,30.30,10,10,10,23,5,16,0.00,1,,17
2013-5-14,78,58,37,39,30,21,60,39,16,30.31,30.22,30.13,10,10,10,22,6,32,0.00,2,Thunderstorm,346
2013-5-15,75,58,42,46,37,30,70,47,23,30.18,30.13,30.05,10,10,10,23,7,28,0.00,2,,22
2013-5-16,80,58,37,36,24,10,81,35,11,30.17,30.10,30.00,10,10,10,20,5,30,0.00,0,,292
2013-5-17,78,58,37,19,15,9,33,18,10,30.18,30.10,30.02,10,10,10,21,7,28,0.00,1,,214
2013-5-18,71,53,35,30,18,3,37,24,12,30.15,30.07,29.99,10,10,9,29,8,34,0.00,2,Thunderstorm,296
2013-5-19,66,54,42,32,24,14,57,34,14,30.05,30.00,29.92,10,10,10,25,8,36,0.00,5,,294
2013-5-20,62,48,35,32,25,19,56,42,22,30.11,30.05,30.01,10,10,7,29,5,37,0.00,3,,309
2013-5-21,73,52,30,30,23,16,70,36,13,30.17,30.08,29.98,10,10,10,21,7,29,0.00,1,,330
2013-5-22,78,58,39,25,18,10,42,20,10,30.10,30.04,29.98,10,10,8,20,6,28,0.00,0,,248
2013-5-23,84,63,42,41,21,10,45,21,10,30.16,30.11,30.04,10,10,3,29,10,41,0.00,0,,186
2013-5-24,80,66,53,45,31,14,67,33,10,30.26,30.19,30.12,10,10,7,31,14,41,0.00,0,,192
2013-5-25,82,64,46,39,26,7,58,27,10,30.25,30.18,30.09,10,10,10,22,8,29,0.00,0,,215
2013-5-26,80,60,39,21,15,3,34,18,10,30.23,30.15,30.07,10,10,10,22,8,31,0.00,0,,269
2013-5-27,77,57,37,18,10,1,23,15,10,30.15,30.08,29.98,10,10,8,26,9,32,0.00,0,,226
2013-5-28,77,56,35,18,12,0,28,17,11,30.04,29.94,29.81,10,10,7,21,7,31,0.00,0,,221
2013-5-29,71,58,44,32,19,7,41,23,13,29.91,29.84,29.77,10,10,10,25,11,34,0.00,3,,279
2013-5-30,75,56,37,27,16,7,39,21,11,30.05,29.97,29.91,10,10,8,34,13,46,0.00,1,,298
2013-5-31,77,56,35,27,14,1,30,18,11,30.19,30.07,30.01,10,9,2,29,9,39,0.00,1,,308